This is the latest recevied weather packets stored in our database for station/object N3MFL. If no packets are shown the sender has not sent any weather packets the latest 10 day(s).
| Time | Temp. | Humidity | Pressure | Rain* | Wind** | Luminosity | Snow |
|---|---|---|---|---|---|---|---|
| 1777639227 | 10.56° C | 65% | 1011.2 hPa | 0 mm | - | 248 W/m² | - |
| 1777638923 | 10.56° C | 66% | 1011.3 hPa | 0 mm | - | 189 W/m² | - |
| 1777638619 | 10° C | 65% | 1011.3 hPa | 0 mm | - | 196 W/m² | - |
| 1777638316 | 10.56° C | 66% | 1011.4 hPa | 0 mm | - | 174 W/m² | - |
| 1777638012 | 10° C | 67% | 1011.3 hPa | 0 mm | - | 173 W/m² | - |
| 1777637709 | 10.56° C | 68% | 1011.3 hPa | 0 mm | - | 172 W/m² | - |
| 1777637405 | 10.56° C | 68% | 1011.4 hPa | 0 mm | - | 199 W/m² | - |
| 1777637102 | 10.56° C | 68% | 1011.2 hPa | 0 mm | - | 318 W/m² | - |
| 1777636797 | 10° C | 70% | 1011 hPa | 0 mm | - | 157 W/m² | - |
| 1777636494 | 9.44° C | 72% | 1011.1 hPa | 0 mm | - | 130 W/m² | - |
| 1777636190 | 9.44° C | 73% | 1011 hPa | 0 mm | - | 105 W/m² | - |
| 1777635885 | 9.44° C | 73% | 1011 hPa | 0 mm | - | 108 W/m² | - |
| 1777635581 | 9.44° C | 73% | 1010.9 hPa | 0 mm | - | 114 W/m² | - |
| 1777635278 | 9.44° C | 74% | 1010.8 hPa | 0 mm | - | 103 W/m² | - |
| 1777634975 | 9.44° C | 75% | 1010.9 hPa | 0 mm | - | 62 W/m² | - |
| 1777634671 | 9.44° C | 75% | 1011 hPa | 0 mm | - | 56 W/m² | - |
| 1777634369 | 9.44° C | 73% | 1010.9 hPa | 0 mm | - | 47 W/m² | - |
| 1777634066 | 9.44° C | 75% | 1010.8 hPa | 0 mm | - | 57 W/m² | - |
| 1777633762 | 9.44° C | 74% | 1010.7 hPa | 0 mm | - | 64 W/m² | - |
| 1777633460 | 9.44° C | 75% | 1010.7 hPa | 0 mm | - | 53 W/m² | - |
| 1777633157 | 8.89° C | 76% | 1010.7 hPa | 0 mm | - | 56 W/m² | - |
| 1777632854 | 8.89° C | 77% | 1010.5 hPa | 0 mm | - | 52 W/m² | - |
| 1777632549 | 8.89° C | 79% | 1010.6 hPa | 0 mm | - | 45 W/m² | - |
| 1777632248 | 8.89° C | 80% | 1010.6 hPa | 0 mm | - | 41 W/m² | - |
| 1777631944 | 8.89° C | 80% | 1010.3 hPa | 0 mm | - | 36 W/m² | - |
* Rain latest hour (hover to see other rain measurements)
** Current wind speed in m/s (hover to see current wind gust speed)